Αρχική σελίδα
METAR-TAF:

METAR-TAF

Αεροδρόμια :

Medicine Lodge Airport

Medicine Lodge, Κάνσας, Ηνωμένες Πολιτείες Αμερικής

γεωγραφικό πλάτος: 37-17-02N, γεωγραφικό μήκος: 098-33-10W, υψόμετρο: 469 μ

Παρών καιρός

Η αναφορά έγινε 32 λεπτά πριν, στις 14:56 UTC
Άνεμος 8 kt από BA
Θερμοκρασία 8°C
Υγρασία 53%
Πίεση 1028 hPa

METAR: KP28 181456Z AUTO 05008KT 08/M01 A3037 RMK AO1 SLP287 T00781011 51018

Χρόνος: 10:28 (15:28 UTC)


TAF: λείπει

Μετεωρολογικές αναφορές και προγνώσεις για περισσότερα από 4000 αεροδρόμια (δελτία METAR και TAF).

Οι διαθέσιμοι σταθμοί απεικονίζονται στο χάρτη με κίτρινες και κόκκινες κουκκίδες.

Μετακινήστε το ποντίκι πάνω από τις κουκκίδες για να δείτε το όνομα του σταθμού.

Στη συνέχεια, κάντε κλικ για να δείτε τις μετεωρολογικές αναφορές και τις προγνώσεις καιρού.

Για να αλλάξετε το χάρτη: κάντε κλικ στα πράσινα κουμπιά με τον μαύρο σταυρό για να ζουμάρετε, στο πράσινο κουμπί με την παύλα για να αφαιρέσετε το ζουμ ή στα πράσινα βέλη για να αντιπαραβάλλετε χάρτες.


METAR-TAF: